Flag for Central African Republic Weather past 2 weeks in Bimbo, Central African Republic

Now
75 °F

Partly sunny.


Feels Like: 75 °F
Forecast: 72 / 83 °F
Wind: 1 mph from North

Location: Bangui Airport

Current Time: Jun 30, 2015 at 10:25:54 AM

Latest Report: Jun 30, 2015 at 9:00 AM


Visibility: N/A

Pressure: 29.98 "Hg

Humidity: 89%

Dew point: 72 °F

Location of BimboLocation

Historic Weather in Bimbo — Graph

°F

Bimbo temperature yesterday

Maximum temperature yesterday: 86 °F (at 10:00 AM)
Minimum temperature yesterday: 75 °F (at 6:00 AM)
Average temperature yesterday: 80 °F

Past Weeks' High & Low Weather Summary

 TemperatureHumidityPressure
High93 °F (Jun 15, 2:00 PM)100% (Jun 16, 10:00 PM)30.07 "Hg (Jun 16, 10:00 PM)
Low72 °F (Jun 21, 3:00 AM)53% (Jun 15, 2:00 PM)29.77 "Hg (Jun 17, 5:00 PM)
Average80 °F84%29.94 "Hg
* Reported Jun 15 10:00 AM — Jun 30 9:00 AM, Bimbo, Weather by CustomWeather, © 2015

Note: Actual official high and low records may vary slightly from our data, if they occured in-between our weather recording intervals... More about our weather records

Advertising

Bimbo weather history for previous 24 hours

 ConditionsComfort  
Time TempWeatherWind HumidityBarometerVisibility
9:00 AM
Tue, Jun 30
75 °FPartly sunny.1 mph89%29.98 "HgN/A
8:00 AM72 °FPartly sunny.3 mph94%29.98 "HgN/A
7:00 AM72 °FLow clouds.5 mph94%29.98 "HgN/A
6:00 AM72 °FThunderstorms. Partly sunny.8 mph94%29.98 "HgN/A
5:00 AM73 °FLight rain. Partly cloudy.6 mph100%29.95 "HgN/A
4:00 AM73 °FClear.2 mph100%29.92 "Hg10 mi
3:00 AM73 °FClear.1 mph100%29.92 "Hg10 mi
2:00 AM73 °FClear.2 mph100%29.92 "Hg10 mi
1:00 AM73 °FClear.No wind100%29.95 "Hg10 mi
12:00 AM75 °FPassing clouds.2 mph94%29.95 "HgN/A
11:00 PM
Mon, Jun 29
75 °FPassing clouds.No wind94%29.95 "HgN/A
10:00 PM75 °FPassing clouds.2 mph94%29.95 "HgN/A
9:00 PM75 °FPassing clouds.2 mph94%29.95 "HgN/A
8:00 PM77 °FPassing clouds.5 mph89%29.95 "HgN/A
7:00 PM77 °FPassing clouds.1 mph89%29.89 "HgN/A
6:00 PM79 °FPassing clouds.7 mph84%29.89 "HgN/A
5:00 PM82 °FPassing clouds.3 mph79%29.86 "HgN/A
4:00 PM82 °FScattered clouds.2 mph74%29.86 "HgN/A
3:00 PM82 °FThunderstorms. Scattered clouds.7 mph74%29.86 "HgN/A
2:00 PM84 °FThunderstorms. Scattered clouds.6 mph74%29.89 "HgN/A
1:00 PM86 °FScattered clouds.7 mph70%29.89 "HgN/A
12:00 PM86 °FScattered clouds.5 mph70%29.95 "HgN/A
11:00 AM82 °FLight rain. Broken clouds.6 mph84%29.98 "Hg5 mi
10:00 AM86 °FPartly sunny.6 mph70%30.01 "HgN/A
Weather by CustomWeather, © 2015

See weather overviewHow to use our weather pages